Time,TemperatureF,DewpointF,PressureIn,WindDirection,WindDirectionDegrees,WindSpeedMPH,WindSpeedGustMPH,Humidity,HourlyPrecipIn,Conditions,Clouds,dailyrainin,SoftwareType,DateUTC
2013-03-25 00:03:00,42.0,41.0,29.55,South,178,1.0,6.0,95,0.00,,,1.12,,2013-03-25 04:03:00,
2013-03-25 00:13:00,42.0,41.0,29.55,South,178,1.0,6.0,95,0.00,,,1.12,,2013-03-25 04:13:00,
2013-03-25 00:23:00,42.0,41.0,29.55,SE,131,1.0,3.0,95,0.00,,,1.12,,2013-03-25 04:23:00,
2013-03-25 00:33:00,42.0,41.0,29.55,SSE,162,0.0,4.0,95,0.00,,,1.12,,2013-03-25 04:33:00,
2013-03-25 00:43:00,42.0,41.0,29.55,SSE,162,0.0,4.0,95,0.00,,,1.12,,2013-03-25 04:43:00,
2013-03-25 00:52:00,42.0,41.0,29.55,South,178,0.0,4.0,96,0.00,,,1.12,,2013-03-25 04:52:00,
2013-03-25 01:03:00,42.0,41.0,29.55,South,182,3.0,7.0,96,0.00,,,1.12,,2013-03-25 05:03:00,
2013-03-25 01:12:00,42.0,41.0,29.55,South,182,3.0,7.0,96,0.00,,,1.12,,2013-03-25 05:12:00,
2013-03-25 01:22:00,42.0,41.0,29.55,South,177,4.0,7.0,96,0.00,,,1.12,,2013-03-25 05:22:00,
2013-03-25 01:33:00,43.0,42.0,29.54,WSW,239,3.0,7.0,96,0.00,,,1.12,,2013-03-25 05:33:00,
2013-03-25 01:42:00,43.0,42.0,29.54,WSW,239,3.0,7.0,96,0.00,,,1.12,,2013-03-25 05:42:00,
2013-03-25 01:52:00,43.0,42.0,29.54,SSW,209,4.0,7.0,96,0.00,,,1.12,,2013-03-25 05:52:00,
2013-03-25 02:02:00,43.0,42.0,29.55,WNW,288,2.0,9.0,96,0.00,,,1.12,,2013-03-25 06:02:00,
2013-03-25 02:12:00,43.0,42.0,29.55,WNW,288,2.0,9.0,96,0.00,,,1.12,,2013-03-25 06:12:00,
2013-03-25 02:22:00,43.0,41.0,29.55,WSW,242,7.0,13.0,94,0.00,,,1.12,,2013-03-25 06:22:00,
2013-03-25 02:32:00,44.0,39.0,29.56,West,269,13.0,21.0,82,0.00,,,1.09,,2013-03-25 06:32:00,
2013-03-25 02:42:00,44.0,39.0,29.56,West,269,13.0,21.0,82,0.00,,,1.09,,2013-03-25 06:42:00,
2013-03-25 02:52:00,43.0,36.0,29.55,WNW,296,10.0,21.0,76,0.00,,,1.09,,2013-03-25 06:52:00,
2013-03-25 03:02:00,43.0,35.0,29.56,WNW,283,9.0,19.0,72,0.00,,,1.09,,2013-03-25 07:02:00,
2013-03-25 03:12:00,43.0,35.0,29.56,WNW,283,9.0,19.0,72,0.00,,,1.09,,2013-03-25 07:12:00,
2013-03-25 03:22:00,43.0,34.0,29.56,WNW,302,7.0,20.0,71,0.00,,,1.09,,2013-03-25 07:22:00,
2013-03-25 03:32:00,43.0,34.0,29.57,NW,304,7.0,15.0,71,0.00,,,0.90,,2013-03-25 07:32:00,
2013-03-25 03:42:00,43.0,34.0,29.57,NW,304,7.0,15.0,71,0.00,,,0.90,,2013-03-25 07:42:00,
2013-03-25 03:52:00,42.0,35.0,29.57,West,273,7.0,12.0,76,0.00,,,0.90,,2013-03-25 07:52:00,
2013-03-25 04:03:00,42.0,36.0,29.57,WSW,256,5.0,15.0,78,0.00,,,0.90,,2013-03-25 08:03:00,
2013-03-25 04:12:00,42.0,36.0,29.57,WSW,256,5.0,15.0,78,0.00,,,0.90,,2013-03-25 08:12:00,
2013-03-25 04:23:00,41.0,35.0,29.57,WSW,244,5.0,12.0,78,0.00,,,0.90,,2013-03-25 08:23:00,
2013-03-25 04:32:00,41.0,34.0,29.57,SSW,192,6.0,13.0,77,0.00,,,0.76,,2013-03-25 08:32:00,
2013-03-25 04:43:00,41.0,34.0,29.57,SSW,192,6.0,13.0,77,0.00,,,0.76,,2013-03-25 08:43:00,
2013-03-25 04:52:00,41.0,34.0,29.57,WSW,257,8.0,15.0,76,0.00,,,0.76,,2013-03-25 08:52:00,
2013-03-25 05:02:00,41.0,34.0,29.57,WSW,254,9.0,16.0,75,0.00,,,0.76,,2013-03-25 09:02:00,
2013-03-25 05:13:00,41.0,34.0,29.57,WSW,254,9.0,16.0,75,0.00,,,0.76,,2013-03-25 09:13:00,
2013-03-25 05:22:00,41.0,34.0,29.57,WSW,253,7.0,15.0,75,0.00,,,0.76,,2013-03-25 09:22:00,
2013-03-25 05:33:00,41.0,33.0,29.58,West,278,9.0,15.0,74,0.00,,,0.60,,2013-03-25 09:33:00,
2013-03-25 05:43:00,41.0,33.0,29.58,West,278,9.0,15.0,74,0.00,,,0.60,,2013-03-25 09:43:00,
2013-03-25 05:52:00,41.0,33.0,29.58,West,277,6.0,18.0,74,0.00,,,0.60,,2013-03-25 09:52:00,
2013-03-25 06:03:00,40.0,32.0,29.59,WSW,248,6.0,14.0,73,0.00,,,0.60,,2013-03-25 10:03:00,
2013-03-25 06:12:00,40.0,32.0,29.59,WSW,248,6.0,14.0,73,0.00,,,0.60,,2013-03-25 10:12:00,
2013-03-25 06:23:00,40.0,32.0,29.59,West,269,5.0,13.0,72,0.00,,,0.60,,2013-03-25 10:23:00,
2013-03-25 06:33:00,40.0,32.0,29.59,West,269,5.0,13.0,72,0.00,,,0.60,,2013-03-25 10:33:00,
2013-03-25 06:42:00,40.0,32.0,29.59,West,269,5.0,13.0,72,0.00,,,0.60,,2013-03-25 10:42:00,
2013-03-25 06:53:00,40.0,29.0,29.61,WNW,286,12.0,24.0,64,0.00,,,0.45,,2013-03-25 10:53:00,
2013-03-25 07:03:00,39.0,27.0,29.62,WSW,257,11.0,23.0,62,0.00,,,0.45,,2013-03-25 11:03:00,
2013-03-25 07:12:00,39.0,27.0,29.62,WSW,257,11.0,23.0,62,0.00,,,0.45,,2013-03-25 11:12:00,
2013-03-25 07:23:00,39.0,27.0,29.63,WNW,298,10.0,22.0,61,0.00,,,0.45,,2013-03-25 11:23:00,
2013-03-25 07:32:00,39.0,26.0,29.63,West,280,10.0,20.0,59,0.00,,,0.42,,2013-03-25 11:32:00,
2013-03-25 07:42:00,39.0,26.0,29.63,West,280,10.0,20.0,59,0.00,,,0.42,,2013-03-25 11:42:00,
2013-03-25 07:52:00,39.0,25.0,29.63,West,276,10.0,21.0,57,0.00,,,0.42,,2013-03-25 11:52:00,
2013-03-25 08:03:00,39.0,25.0,29.64,WNW,284,9.0,15.0,57,0.00,,,0.42,,2013-03-25 12:03:00,
2013-03-25 08:13:00,39.0,25.0,29.64,WNW,284,9.0,15.0,57,0.00,,,0.42,,2013-03-25 12:13:00,
2013-03-25 08:23:00,38.0,24.0,29.64,WNW,289,8.0,24.0,57,0.00,,,0.42,,2013-03-25 12:23:00,
2013-03-25 08:33:00,38.0,24.0,29.65,West,269,10.0,20.0,56,0.00,,,0.16,,2013-03-25 12:33:00,
2013-03-25 08:43:00,38.0,24.0,29.65,West,269,10.0,20.0,56,0.00,,,0.16,,2013-03-25 12:43:00,
2013-03-25 08:53:00,39.0,25.0,29.66,WNW,288,12.0,21.0,56,0.00,,,0.16,,2013-03-25 12:53:00,
2013-03-25 09:03:00,39.0,25.0,29.67,West,281,9.0,19.0,56,0.00,,,0.16,,2013-03-25 13:03:00,
2013-03-25 09:13:00,39.0,25.0,29.67,West,281,9.0,19.0,56,0.00,,,0.16,,2013-03-25 13:13:00,
2013-03-25 09:23:00,39.0,24.0,29.67,West,272,13.0,25.0,54,0.00,,,0.16,,2013-03-25 13:23:00,
2013-03-25 09:32:00,39.0,24.0,29.67,West,266,12.0,23.0,54,0.00,,,0.07,,2013-03-25 13:32:00,
2013-03-25 09:43:00,39.0,24.0,29.67,West,266,12.0,23.0,54,0.00,,,0.07,,2013-03-25 13:43:00,
2013-03-25 09:52:00,40.0,25.0,29.68,West,281,14.0,21.0,54,0.00,,,0.07,,2013-03-25 13:52:00,
2013-03-25 10:03:00,41.0,25.0,29.68,West,279,12.0,25.0,53,0.00,,,0.07,,2013-03-25 14:03:00,
2013-03-25 10:12:00,41.0,25.0,29.68,West,279,12.0,25.0,53,0.00,,,0.07,,2013-03-25 14:12:00,
2013-03-25 10:23:00,41.0,25.0,29.69,West,263,11.0,24.0,52,0.00,,,0.07,,2013-03-25 14:23:00,
2013-03-25 10:32:00,41.0,25.0,29.70,South,190,13.0,25.0,52,0.00,,,0.07,,2013-03-25 14:32:00,
2013-03-25 10:43:00,41.0,25.0,29.70,South,190,13.0,25.0,52,0.00,,,0.07,,2013-03-25 14:43:00,
2013-03-25 10:52:00,41.0,25.0,29.70,West,266,14.0,31.0,53,0.00,,,0.07,,2013-03-25 14:52:00,
2013-03-25 11:03:00,42.0,26.0,29.70,SW,229,14.0,23.0,52,0.00,,,0.07,,2013-03-25 15:03:00,
2013-03-25 11:13:00,42.0,26.0,29.70,SW,229,14.0,23.0,52,0.00,,,0.07,,2013-03-25 15:13:00,
2013-03-25 11:23:00,42.0,26.0,29.71,NW,315,10.0,32.0,52,0.00,,,0.07,,2013-03-25 15:23:00,
2013-03-25 11:33:00,43.0,26.0,29.71,NW,323,10.0,26.0,51,0.00,,,0.05,,2013-03-25 15:33:00,
2013-03-25 11:43:00,43.0,26.0,29.71,NW,323,10.0,26.0,51,0.00,,,0.05,,2013-03-25 15:43:00,
2013-03-25 11:53:00,42.0,25.0,29.72,West,262,12.0,26.0,51,0.00,,,0.05,,2013-03-25 15:53:00,
2013-03-25 12:03:00,43.0,27.0,29.73,West,281,11.0,26.0,52,0.00,,,0.05,,2013-03-25 16:03:00,
2013-03-25 12:12:00,43.0,27.0,29.73,West,281,11.0,26.0,52,0.00,,,0.05,,2013-03-25 16:12:00,
2013-03-25 12:23:00,43.0,27.0,29.73,West,281,11.0,26.0,52,0.00,,,0.05,,2013-03-25 16:23:00,
2013-03-25 12:33:00,43.0,26.0,29.73,WSW,249,10.0,22.0,50,0.00,,,0.04,,2013-03-25 16:33:00,
2013-03-25 12:43:00,43.0,26.0,29.73,WSW,249,10.0,22.0,50,0.00,,,0.04,,2013-03-25 16:43:00,
2013-03-25 12:53:00,43.0,26.0,29.74,WNW,282,12.0,31.0,50,0.00,,,0.04,,2013-03-25 16:53:00,
2013-03-25 13:03:00,44.0,24.0,29.74,WNW,288,15.0,24.0,45,0.00,,,0.04,,2013-03-25 17:03:00,
2013-03-25 13:13:00,44.0,24.0,29.74,WNW,288,15.0,24.0,45,0.00,,,0.04,,2013-03-25 17:13:00,
2013-03-25 13:24:00,43.0,24.0,29.74,WNW,284,16.0,25.0,47,0.00,,,0.04,,2013-03-25 17:24:00,
2013-03-25 13:33:00,43.0,24.0,29.74,WNW,290,12.0,23.0,47,0.00,,,0.03,,2013-03-25 17:33:00,
2013-03-25 13:43:00,43.0,24.0,29.74,WNW,290,12.0,23.0,47,0.00,,,0.03,,2013-03-25 17:43:00,
2013-03-25 13:52:00,44.0,25.0,29.74,West,266,10.0,21.0,47,0.00,,,0.03,,2013-03-25 17:52:00,
2013-03-25 14:04:00,44.0,25.0,29.75,WNW,290,16.0,27.0,46,0.00,,,0.03,,2013-03-25 18:04:00,
2013-03-25 14:13:00,44.0,25.0,29.75,WNW,290,16.0,27.0,46,0.00,,,0.03,,2013-03-25 18:13:00,
2013-03-25 14:23:00,43.0,25.0,29.74,West,276,10.0,25.0,48,0.00,,,0.03,,2013-03-25 18:23:00,
2013-03-25 14:33:00,46.0,25.0,29.74,West,277,17.0,31.0,44,0.00,,,0.03,,2013-03-25 18:33:00,
2013-03-25 14:43:00,46.0,25.0,29.74,West,277,17.0,31.0,44,0.00,,,0.03,,2013-03-25 18:43:00,
2013-03-25 14:52:00,47.0,26.0,29.74,West,281,16.0,29.0,43,0.00,,,0.03,,2013-03-25 18:52:00,
2013-03-25 15:03:00,46.0,25.0,29.72,West,281,15.0,35.0,44,0.00,,,0.03,,2013-03-25 19:03:00,
2013-03-25 15:13:00,46.0,25.0,29.72,West,281,15.0,35.0,44,0.00,,,0.03,,2013-03-25 19:13:00,
2013-03-25 15:23:00,47.0,25.0,29.74,West,266,16.0,25.0,42,0.00,,,0.03,,2013-03-25 19:23:00,
2013-03-25 15:33:00,48.0,26.0,29.74,West,275,16.0,25.0,42,0.00,,,0.03,,2013-03-25 19:33:00,
2013-03-25 15:43:00,48.0,26.0,29.74,West,275,16.0,25.0,42,0.00,,,0.03,,2013-03-25 19:43:00,
2013-03-25 15:52:00,47.0,25.0,29.74,WSW,246,17.0,30.0,41,0.00,,,0.03,,2013-03-25 19:52:00,
2013-03-25 16:02:00,47.0,25.0,29.75,WNW,288,18.0,33.0,42,0.00,,,0.03,,2013-03-25 20:02:00,
2013-03-25 16:12:00,47.0,25.0,29.75,WNW,288,18.0,33.0,42,0.00,,,0.03,,2013-03-25 20:12:00,
2013-03-25 16:22:00,47.0,26.0,29.75,WSW,252,12.0,33.0,44,0.00,,,0.03,,2013-03-25 20:22:00,
2013-03-25 16:32:00,46.0,25.0,29.75,WNW,301,17.0,28.0,43,0.00,,,0.03,,2013-03-25 20:32:00,
2013-03-25 16:42:00,46.0,25.0,29.75,WNW,301,17.0,28.0,43,0.00,,,0.03,,2013-03-25 20:42:00,
2013-03-25 16:52:00,47.0,25.0,29.75,West,269,19.0,29.0,41,0.00,,,0.03,,2013-03-25 20:52:00,
2013-03-25 17:03:00,47.0,24.0,29.75,West,264,10.0,27.0,40,0.00,,,0.03,,2013-03-25 21:03:00,
2013-03-25 17:13:00,47.0,24.0,29.75,West,264,10.0,27.0,40,0.00,,,0.03,,2013-03-25 21:13:00,
2013-03-25 17:22:00,46.0,24.0,29.76,WSW,252,14.0,32.0,41,0.00,,,0.03,,2013-03-25 21:22:00,
2013-03-25 17:33:00,47.0,25.0,29.77,WNW,287,14.0,25.0,42,0.00,,,0.03,,2013-03-25 21:33:00,
2013-03-25 17:43:00,47.0,25.0,29.77,WNW,287,14.0,25.0,42,0.00,,,0.03,,2013-03-25 21:43:00,
2013-03-25 17:52:00,46.0,24.0,29.78,WSW,257,15.0,25.0,42,0.00,,,0.03,,2013-03-25 21:52:00,
2013-03-25 18:03:00,46.0,25.0,29.78,NW,306,13.0,25.0,43,0.00,,,0.03,,2013-03-25 22:03:00,
2013-03-25 18:13:00,46.0,25.0,29.78,NW,306,13.0,25.0,43,0.00,,,0.03,,2013-03-25 22:13:00,
2013-03-25 18:23:00,44.0,23.0,29.78,West,260,12.0,25.0,44,0.00,,,0.03,,2013-03-25 22:23:00,
2013-03-25 18:33:00,45.0,24.0,29.79,West,264,13.0,30.0,44,0.00,,,0.03,,2013-03-25 22:33:00,
2013-03-25 18:42:00,45.0,24.0,29.79,West,264,13.0,30.0,44,0.00,,,0.03,,2013-03-25 22:42:00,
2013-03-25 18:52:00,43.0,23.0,29.80,West,271,12.0,29.0,45,0.00,,,0.03,,2013-03-25 22:52:00,
2013-03-25 19:03:00,43.0,24.0,29.81,West,278,14.0,26.0,46,0.00,,,0.03,,2013-03-25 23:03:00,
2013-03-25 19:12:00,43.0,24.0,29.81,West,278,14.0,26.0,46,0.00,,,0.03,,2013-03-25 23:12:00,
2013-03-25 19:23:00,43.0,24.0,29.82,West,260,12.0,24.0,46,0.00,,,0.03,,2013-03-25 23:23:00,
2013-03-25 19:33:00,42.0,23.0,29.83,West,263,13.0,24.0,46,0.00,,,0.03,,2013-03-25 23:33:00,
2013-03-25 19:43:00,42.0,23.0,29.83,West,263,13.0,24.0,46,0.00,,,0.03,,2013-03-25 23:43:00,
2013-03-25 19:52:00,41.0,23.0,29.83,NNW,327,11.0,18.0,48,0.00,,,0.03,,2013-03-25 23:52:00,
2013-03-25 20:02:00,41.0,24.0,29.84,NW,315,10.0,21.0,50,0.00,,,0.03,,2013-03-26 00:02:00,
2013-03-25 20:12:00,41.0,24.0,29.84,NW,315,10.0,21.0,50,0.00,,,0.03,,2013-03-26 00:12:00,
2013-03-25 20:22:00,40.0,23.0,29.85,West,277,14.0,24.0,51,0.00,,,0.03,,2013-03-26 00:22:00,
2013-03-25 20:32:00,40.0,23.0,29.86,WSW,254,9.0,21.0,51,0.00,,,0.03,,2013-03-26 00:32:00,
2013-03-25 20:42:00,40.0,23.0,29.86,WSW,254,9.0,21.0,51,0.00,,,0.03,,2013-03-26 00:42:00,
2013-03-25 20:52:00,39.0,23.0,29.88,WNW,295,10.0,19.0,53,0.00,,,0.03,,2013-03-26 00:52:00,
2013-03-25 21:02:00,39.0,23.0,29.88,West,271,8.0,23.0,53,0.00,,,0.03,,2013-03-26 01:02:00,
2013-03-25 21:12:00,39.0,23.0,29.88,West,271,8.0,23.0,53,0.00,,,0.03,,2013-03-26 01:12:00,
2013-03-25 21:23:00,39.0,23.0,29.88,West,269,7.0,21.0,53,0.00,,,0.03,,2013-03-26 01:23:00,
2013-03-25 21:32:00,38.0,22.0,29.88,NW,309,12.0,18.0,53,0.00,,,0.03,,2013-03-26 01:32:00,
2013-03-25 21:42:00,38.0,22.0,29.88,NW,309,12.0,18.0,53,0.00,,,0.03,,2013-03-26 01:42:00,
2013-03-25 21:52:00,38.0,22.0,29.89,West,266,10.0,20.0,53,0.00,,,0.03,,2013-03-26 01:52:00,
2013-03-25 22:02:00,38.0,23.0,29.90,West,281,11.0,19.0,54,0.00,,,0.03,,2013-03-26 02:02:00,
2013-03-25 22:12:00,38.0,23.0,29.90,West,281,11.0,19.0,54,0.00,,,0.03,,2013-03-26 02:12:00,
2013-03-25 22:22:00,38.0,23.0,29.90,WNW,287,8.0,18.0,54,0.00,,,0.03,,2013-03-26 02:22:00,
2013-03-25 22:32:00,37.0,22.0,29.91,West,268,7.0,14.0,55,0.00,,,0.01,,2013-03-26 02:32:00,
2013-03-25 22:43:00,37.0,22.0,29.91,West,268,7.0,14.0,55,0.00,,,0.01,,2013-03-26 02:43:00,
2013-03-25 22:52:00,37.0,23.0,29.92,WNW,282,5.0,17.0,56,0.00,,,0.01,,2013-03-26 02:52:00,
2013-03-25 23:02:00,37.0,23.0,29.91,West,267,10.0,16.0,57,0.00,,,0.01,,2013-03-26 03:02:00,
2013-03-25 23:12:00,37.0,23.0,29.91,West,267,10.0,16.0,57,0.00,,,0.01,,2013-03-26 03:12:00,
2013-03-25 23:22:00,37.0,24.0,29.92,West,274,6.0,19.0,58,0.00,,,0.01,,2013-03-26 03:22:00,
2013-03-25 23:34:00,36.0,23.0,29.93,West,271,6.0,11.0,59,0.00,,,0.00,,2013-03-26 03:34:00,
2013-03-25 23:42:00,36.0,23.0,29.93,West,271,6.0,11.0,59,0.00,,,0.00,,2013-03-26 03:42:00,
2013-03-25 23:53:00,36.0,23.0,29.93,West,273,6.0,12.0,59,0.00,,,0.00,,2013-03-26 03:53:00,